Simultaneous Nadir Overpasses (SNOs) Predictions

Prediction of SNOs between GOES-17 and NOAA-20 Satellite Orbit:

Table of predicted SNOs for the next 14.0 days since TLE Epoch: 1/6/2024
Index Date Time (GOES-17) GOES-17 Lat,Lon NOAA-20 Lat,Lon Distance(km) Time Diff (sec)
1 01/07/2024 08:26:50 0.02,-104.68 0.08,-105.06 42.27 80
2 01/08/2024 08:05:25 0.02,-104.68 -0.92,-100.52 474.11 80
3 01/09/2024 20:27:20 -0.02,-104.65 -0.26,-105.82 133.09 80
4 01/10/2024 20:11:14 -0.01,-104.65 0.74,-101.28 383.21 80
5 01/12/2024 08:33:02 0.01,-104.66 0.42,-106.55 214.82 80
6 01/13/2024 08:11:36 0.01,-104.66 -0.58,-102.02 301.27 80
7 01/14/2024 20:33:31 -0.01,-104.63 -0.59,-107.32 306.20 80
8 01/15/2024 20:17:26 0.00,-104.62 0.42,-102.78 210.28 80
9 01/17/2024 08:39:13 -0.00,-104.65 0.73,-108.05 386.87 80
10 01/18/2024 08:17:48 -0.00,-104.65 -0.27,-103.51 129.63 80
11 01/19/2024 20:39:42 -0.01,-104.61 -0.95,-108.80 477.56 80
